Simultaneous Nadir Overpasses (SNOs) Predictions

Prediction of SNOs over PacNW region [( 10.00, 139.50) to ( 22.70, 165.60)] between NOAA-19 and NPP Satellites:

Table of predicted SNOs over PacNW region for the next 30.0 days since TLE Epoch: 6/9/2014
Index Date (NOAA-19) Time (NOAA-19) NOAA-19 Lat,Lon Date (NPP) Time (NPP) NPP Lat,Lon Distance(km) Time Diff (sec)
1 06/16/2014 03:07:51 22.00, 157.26 06/16/2014 03:08:02 20.86, 152.44 515.27 11
2 06/16/2014 15:44:00 10.05, 153.45 06/16/2014 15:40:24 10.17, 149.29 455.36 216
3 06/28/2014 15:08:27 22.59, 164.61 06/28/2014 15:11:20 23.93, 158.97 595.59 173
4 06/29/2014 04:06:57 22.65, 142.51 06/29/2014 04:05:36 21.76, 137.97 477.91 81




NCC Satellite Simultaneous Nadir Overpasses (SNOs) Prediction Service
